Location: *
(37.5724°S, 58.0067°E)
Time: 11:30:07
(UTC+00:00)

Cosmos 1726 - Pass Details

Date: 26 September 2020
Orbit: 482 x 498 km, 82.5° (Epoch: 29 October)

Event Time Altitude Azimuth Distance (km) Brightness Sun altitude
Rises 15:44:22 0° 186° (S) 2,586 6.1 -19.5°
Reaches altitude 10° 15:46:30 10° 184° (S) 1,695 5.1 -19.9°
Maximum altitude 15:50:12 76° 98° (E) 511 1.9 -20.6°
Enters shadow 15:50:17 75° 81° (E) 512 1.9 -20.6°
